Time,TemperatureF,DewpointF,PressureIn,WindDirection,WindDirectionDegrees,WindSpeedMPH,WindSpeedGustMPH,Humidity,HourlyPrecipIn,Conditions,Clouds,dailyrainin,SoftwareType,DateUTC
2013-04-28 00:10:00,44.1,30.6,30.31,East,83,0.0,0.0,59,0.00,,,0.00,WeatherDisplay:10.37,2013-04-28 04:10:00,
2013-04-28 00:20:00,43.5,30.5,30.31,ESE,105,0.0,0.0,60,0.00,,,0.00,WeatherDisplay:10.37,2013-04-28 04:20:00,
2013-04-28 00:30:00,43.2,30.6,30.30,ESE,105,0.0,0.0,61,0.00,,,0.00,WeatherDisplay:10.37,2013-04-28 04:30:00,
2013-04-28 00:40:00,42.8,30.3,30.30,ESE,105,0.0,0.0,61,0.00,,,0.00,WeatherDisplay:10.37,2013-04-28 04:40:00,
2013-04-28 00:50:00,42.3,29.8,30.30,ESE,117,0.0,0.0,61,0.00,,,0.00,WeatherDisplay:10.37,2013-04-28 04:50:00,
2013-04-28 00:59:00,41.9,29.8,30.30,SE,128,0.0,0.0,62,0.00,,,0.00,WeatherDisplay:10.37,2013-04-28 04:59:00,
2013-04-28 01:10:00,41.5,29.9,30.30,SE,128,0.0,0.0,63,0.00,,,0.00,WeatherDisplay:10.37,2013-04-28 05:10:00,
2013-04-28 01:20:00,41.2,29.9,30.30,SE,128,0.0,0.0,64,0.00,,,0.00,WeatherDisplay:10.37,2013-04-28 05:20:00,
2013-04-28 01:30:00,41.0,29.7,30.30,SE,128,0.0,0.0,64,0.00,,,0.00,WeatherDisplay:10.37,2013-04-28 05:30:00,
2013-04-28 01:40:00,40.6,29.8,30.30,SE,128,0.0,0.0,65,0.00,,,0.00,WeatherDisplay:10.37,2013-04-28 05:40:00,
2013-04-28 01:50:00,40.2,29.3,30.30,SE,128,0.0,0.0,65,0.00,,,0.00,WeatherDisplay:10.37,2013-04-28 05:50:00,
2013-04-28 01:59:00,40.1,29.6,30.30,SE,128,0.0,0.0,66,0.00,,,0.00,WeatherDisplay:10.37,2013-04-28 05:59:00,
2013-04-28 02:10:00,39.9,29.5,30.30,SE,128,0.0,0.0,66,0.00,,,0.00,WeatherDisplay:10.37,2013-04-28 06:10:00,
2013-04-28 02:20:00,39.6,29.1,30.30,SE,128,0.0,0.0,66,0.00,,,0.00,WeatherDisplay:10.37,2013-04-28 06:20:00,
2013-04-28 02:30:00,39.2,29.2,30.30,SE,128,0.0,0.0,67,0.00,,,0.00,WeatherDisplay:10.37,2013-04-28 06:30:00,
2013-04-28 02:40:00,38.8,28.8,30.30,SE,128,0.0,0.0,67,0.00,,,0.00,WeatherDisplay:10.37,2013-04-28 06:40:00,
2013-04-28 02:50:00,38.8,29.2,30.28,SE,128,0.0,0.0,68,0.00,,,0.00,WeatherDisplay:10.37,2013-04-28 06:50:00,
2013-04-28 02:59:00,38.7,29.0,30.28,SE,128,0.0,0.0,68,0.00,,,0.00,WeatherDisplay:10.37,2013-04-28 06:59:00,
2013-04-28 03:10:00,38.3,28.7,30.30,SE,128,0.0,0.0,68,0.00,,,0.00,WeatherDisplay:10.37,2013-04-28 07:10:00,
2013-04-28 03:20:00,38.7,29.4,30.28,SE,128,0.0,0.0,69,0.00,,,0.00,WeatherDisplay:10.37,2013-04-28 07:20:00,
2013-04-28 03:30:00,38.3,29.0,30.28,SE,128,0.0,0.0,69,0.00,,,0.00,WeatherDisplay:10.37,2013-04-28 07:30:00,
2013-04-28 03:40:00,37.9,28.7,30.28,SE,128,0.0,0.0,69,0.00,,,0.00,WeatherDisplay:10.37,2013-04-28 07:40:00,
2013-04-28 03:50:00,37.6,28.7,30.28,SE,128,0.0,0.0,70,0.00,,,0.00,WeatherDisplay:10.37,2013-04-28 07:50:00,
2013-04-28 03:59:00,37.6,28.7,30.28,SE,128,0.0,0.0,70,0.00,,,0.00,WeatherDisplay:10.37,2013-04-28 07:59:00,
2013-04-28 04:10:00,37.4,28.5,30.28,SE,128,0.0,0.0,70,0.00,,,0.00,WeatherDisplay:10.37,2013-04-28 08:10:00,
2013-04-28 04:20:00,37.0,28.5,30.28,SE,128,0.0,0.0,71,0.00,,,0.00,WeatherDisplay:10.37,2013-04-28 08:20:00,
2013-04-28 04:30:00,36.9,28.3,30.28,SE,128,0.0,0.0,71,0.00,,,0.00,WeatherDisplay:10.37,2013-04-28 08:30:00,
2013-04-28 04:40:00,36.8,28.3,30.28,SE,128,0.0,0.0,71,0.00,,,0.00,WeatherDisplay:10.37,2013-04-28 08:40:00,
2013-04-28 04:50:00,36.5,28.3,30.27,SE,128,0.0,0.0,72,0.00,,,0.00,WeatherDisplay:10.37,2013-04-28 08:50:00,
2013-04-28 04:59:00,36.1,28.0,30.27,SE,128,0.0,0.0,72,0.00,,,0.00,WeatherDisplay:10.37,2013-04-28 08:59:00,
2013-04-28 05:10:00,36.0,28.1,30.27,SE,128,0.0,0.0,73,0.00,,,0.00,WeatherDisplay:10.37,2013-04-28 09:10:00,
2013-04-28 05:20:00,36.0,28.1,30.27,SSE,148,0.0,0.0,73,0.00,,,0.00,WeatherDisplay:10.37,2013-04-28 09:20:00,
2013-04-28 05:30:00,36.1,28.3,30.28,SSE,150,0.0,0.0,73,0.00,,,0.00,WeatherDisplay:10.37,2013-04-28 09:30:00,
2013-04-28 05:40:00,36.1,28.6,30.27,SSE,150,0.0,0.0,74,0.00,,,0.00,WeatherDisplay:10.37,2013-04-28 09:40:00,
2013-04-28 05:50:00,36.0,28.5,30.27,SSE,150,0.0,0.0,74,0.00,,,0.00,WeatherDisplay:10.37,2013-04-28 09:50:00,
2013-04-28 05:59:00,35.8,28.3,30.27,SSE,150,0.0,0.0,74,0.00,,,0.00,WeatherDisplay:10.37,2013-04-28 09:59:00,
2013-04-28 06:10:00,35.6,28.1,30.28,SSE,150,0.0,0.0,74,0.00,,,0.00,WeatherDisplay:10.37,2013-04-28 10:10:00,
2013-04-28 06:20:00,35.6,28.5,30.28,SSE,155,0.0,0.0,75,0.00,,,0.00,WeatherDisplay:10.37,2013-04-28 10:20:00,
2013-04-28 06:30:00,35.8,28.6,30.28,SSE,150,0.0,0.0,75,0.00,,,0.00,WeatherDisplay:10.37,2013-04-28 10:30:00,
2013-04-28 06:40:00,37.1,30.2,30.27,SSE,150,0.0,0.0,76,0.00,,,0.00,WeatherDisplay:10.37,2013-04-28 10:40:00,
2013-04-28 06:50:00,38.3,31.1,30.28,SSE,150,0.0,0.0,75,0.00,,,0.00,WeatherDisplay:10.37,2013-04-28 10:50:00,
2013-04-28 06:59:00,40.1,32.8,30.28,SSE,150,0.0,0.0,75,0.00,,,0.00,WeatherDisplay:10.37,2013-04-28 10:59:00,
2013-04-28 07:10:00,41.7,33.7,30.30,SSE,158,0.0,0.0,73,0.00,,,0.00,WeatherDisplay:10.37,2013-04-28 11:10:00,
2013-04-28 07:20:00,42.4,34.4,30.30,SSE,167,0.0,0.0,73,0.00,,,0.00,WeatherDisplay:10.37,2013-04-28 11:20:00,
2013-04-28 07:30:00,42.8,34.4,30.30,SSW,209,0.0,0.0,72,0.00,,,0.00,WeatherDisplay:10.37,2013-04-28 11:30:00,
2013-04-28 07:40:00,43.2,34.7,30.30,NW,318,0.0,0.0,72,0.00,,,0.00,WeatherDisplay:10.37,2013-04-28 11:40:00,
2013-04-28 07:50:00,43.7,34.9,30.30,NW,306,0.0,0.0,71,0.00,,,0.00,WeatherDisplay:10.37,2013-04-28 11:50:00,
2013-04-28 07:59:00,44.2,35.4,30.30,NW,308,0.0,0.0,71,0.00,,,0.00,WeatherDisplay:10.37,2013-04-28 11:59:00,
2013-04-28 08:10:00,44.8,35.6,30.31,NW,308,0.0,0.0,70,0.00,,,0.00,WeatherDisplay:10.37,2013-04-28 12:10:00,
2013-04-28 08:20:00,45.6,36.0,30.31,WNW,285,0.0,0.0,69,0.00,,,0.00,WeatherDisplay:10.37,2013-04-28 12:20:00,
2013-04-28 08:30:00,46.5,36.5,30.31,West,262,0.0,0.0,68,0.00,,,0.00,WeatherDisplay:10.37,2013-04-28 12:30:00,
2013-04-28 08:40:00,47.3,37.2,30.31,WNW,293,0.0,0.0,68,0.00,,,0.00,WeatherDisplay:10.37,2013-04-28 12:40:00,
2013-04-28 08:50:00,48.2,37.8,30.31,North,358,0.0,0.0,67,0.00,,,0.00,WeatherDisplay:10.37,2013-04-28 12:50:00,
2013-04-28 08:59:00,48.9,38.1,30.32,North,350,0.0,0.0,66,0.00,,,0.00,WeatherDisplay:10.37,2013-04-28 12:59:00,
2013-04-28 09:10:00,49.5,38.2,30.32,WNW,301,0.0,0.0,65,0.00,,,0.00,WeatherDisplay:10.37,2013-04-28 13:10:00,
2013-04-28 09:20:00,50.4,39.0,30.32,NNW,339,0.0,0.0,65,0.00,,,0.00,WeatherDisplay:10.37,2013-04-28 13:20:00,
2013-04-28 09:30:00,51.4,41.9,30.32,ENE,69,0.0,0.0,70,0.00,,,0.00,WeatherDisplay:10.37,2013-04-28 13:30:00,
2013-04-28 09:40:00,52.4,42.1,30.32,North,1,0.0,0.0,68,0.00,,,0.00,WeatherDisplay:10.37,2013-04-28 13:40:00,
2013-04-28 09:50:00,52.9,41.1,30.32,NNE,26,0.0,0.0,64,0.00,,,0.00,WeatherDisplay:10.37,2013-04-28 13:50:00,
2013-04-28 09:59:00,53.2,40.5,30.31,North,349,0.0,0.0,62,0.00,,,0.00,WeatherDisplay:10.37,2013-04-28 13:59:00,
2013-04-28 10:10:00,54.0,40.8,30.31,NE,35,0.0,0.0,61,0.00,,,0.00,WeatherDisplay:10.37,2013-04-28 14:10:00,
2013-04-28 10:20:00,55.0,41.8,30.32,East,87,0.0,0.0,61,0.00,,,0.00,WeatherDisplay:10.37,2013-04-28 14:20:00,
2013-04-28 10:30:00,55.6,41.5,30.32,ESE,108,0.0,0.0,59,0.00,,,0.00,WeatherDisplay:10.37,2013-04-28 14:30:00,
2013-04-28 10:40:00,55.8,40.7,30.32,SE,142,0.0,0.0,57,0.00,,,0.00,WeatherDisplay:10.37,2013-04-28 14:40:00,
2013-04-28 10:50:00,56.3,41.3,30.31,ESE,102,1.0,0.0,57,0.00,,,0.00,WeatherDisplay:10.37,2013-04-28 14:50:00,
2013-04-28 10:59:00,56.8,41.8,30.31,ESE,115,0.0,0.0,57,0.00,,,0.00,WeatherDisplay:10.37,2013-04-28 14:59:00,
2013-04-28 11:10:00,57.6,42.9,30.30,East,97,0.0,0.0,58,0.00,,,0.00,WeatherDisplay:10.37,2013-04-28 15:10:00,
2013-04-28 11:20:00,58.1,42.1,30.30,North,9,0.0,0.0,55,0.00,,,0.00,WeatherDisplay:10.37,2013-04-28 15:20:00,
2013-04-28 11:30:00,58.6,43.0,30.30,East,81,0.0,0.0,56,0.00,,,0.00,WeatherDisplay:10.37,2013-04-28 15:30:00,
2013-04-28 11:40:00,59.3,42.1,30.30,East,80,1.0,0.0,53,0.00,,,0.00,WeatherDisplay:10.37,2013-04-28 15:40:00,
2013-04-28 11:50:00,59.5,42.4,30.30,ESE,120,0.0,0.0,53,0.00,,,0.00,WeatherDisplay:10.37,2013-04-28 15:50:00,
2013-04-28 11:59:00,59.7,41.6,30.30,SE,133,0.0,0.0,51,0.00,,,0.00,WeatherDisplay:10.37,2013-04-28 15:59:00,
2013-04-28 12:10:00,59.5,40.9,30.30,NE,47,0.0,0.0,50,0.00,,,0.00,WeatherDisplay:10.37,2013-04-28 16:10:00,
2013-04-28 12:20:00,60.0,41.8,30.30,NE,49,0.0,0.0,51,0.00,,,0.00,WeatherDisplay:10.37,2013-04-28 16:20:00,
2013-04-28 12:30:00,60.4,42.2,30.30,ENE,78,0.0,0.0,51,0.00,,,0.00,WeatherDisplay:10.37,2013-04-28 16:30:00,
2013-04-28 12:40:00,60.6,41.3,30.28,SE,126,1.0,0.0,49,0.00,,,0.00,WeatherDisplay:10.37,2013-04-28 16:40:00,
2013-04-28 12:50:00,60.8,42.5,30.27,North,1,0.0,0.0,51,0.00,,,0.00,WeatherDisplay:10.37,2013-04-28 16:50:00,
2013-04-28 12:59:00,61.2,43.4,30.28,East,81,0.0,0.0,52,0.00,,,0.00,WeatherDisplay:10.37,2013-04-28 16:59:00,
2013-04-28 13:10:00,61.5,44.7,30.27,NE,48,0.0,0.0,54,0.00,,,0.00,WeatherDisplay:10.37,2013-04-28 17:10:00,
2013-04-28 13:20:00,62.1,43.7,30.27,East,98,1.0,0.0,51,0.00,,,0.00,WeatherDisplay:10.37,2013-04-28 17:20:00,
2013-04-28 13:30:00,62.2,44.4,30.27,East,99,3.0,0.0,52,0.00,,,0.00,WeatherDisplay:10.37,2013-04-28 17:30:00,
2013-04-28 13:40:00,62.5,42.6,30.26,ESE,104,2.0,0.0,48,0.00,,,0.00,WeatherDisplay:10.37,2013-04-28 17:40:00,
2013-04-28 13:50:00,62.5,42.0,30.26,East,97,1.0,0.0,47,0.00,,,0.00,WeatherDisplay:10.37,2013-04-28 17:50:00,
2013-04-28 13:59:00,62.2,41.7,30.26,SE,126,0.0,0.0,47,0.00,,,0.00,WeatherDisplay:10.37,2013-04-28 17:59:00,
2013-04-28 14:10:00,62.2,40.6,30.25,SE,129,3.0,0.0,45,0.00,,,0.00,WeatherDisplay:10.37,2013-04-28 18:10:00,
2013-04-28 14:20:00,62.9,41.8,30.26,ESE,123,6.0,0.0,46,0.00,,,0.00,WeatherDisplay:10.37,2013-04-28 18:20:00,
2013-04-28 14:30:00,63.0,41.3,30.25,ESE,117,0.0,0.0,45,0.00,,,0.00,WeatherDisplay:10.37,2013-04-28 18:30:00,
2013-04-28 14:40:00,62.7,43.3,30.25,SE,128,0.0,0.0,49,0.00,,,0.00,WeatherDisplay:10.37,2013-04-28 18:40:00,
2013-04-28 14:50:00,62.9,42.3,30.25,SE,129,3.0,0.0,47,0.00,,,0.00,WeatherDisplay:10.37,2013-04-28 18:50:00,
2013-04-28 14:59:00,62.9,42.4,30.23,SE,128,2.0,0.0,47,0.00,,,0.00,WeatherDisplay:10.37,2013-04-28 18:59:00,
2013-04-28 15:10:00,63.3,42.7,30.24,SE,127,5.0,0.0,47,0.00,,,0.00,WeatherDisplay:10.37,2013-04-28 19:10:00,
2013-04-28 15:20:00,63.2,42.6,30.23,NE,40,0.0,0.0,47,0.00,,,0.00,WeatherDisplay:10.37,2013-04-28 19:20:00,
2013-04-28 15:30:00,62.8,41.7,30.22,NE,43,1.0,0.0,46,0.00,,,0.00,WeatherDisplay:10.37,2013-04-28 19:30:00,
2013-04-28 15:40:00,62.9,41.8,30.22,SE,128,1.0,0.0,46,0.00,,,0.00,WeatherDisplay:10.37,2013-04-28 19:40:00,
2013-04-28 15:50:00,63.3,41.6,30.22,ESE,107,3.0,0.0,45,0.00,,,0.00,WeatherDisplay:10.37,2013-04-28 19:50:00,
2013-04-28 15:59:00,63.5,41.8,30.21,ESE,103,2.0,0.0,45,0.00,,,0.00,WeatherDisplay:10.37,2013-04-28 19:59:00,
2013-04-28 16:10:00,63.3,41.0,30.21,ENE,70,0.0,0.0,44,0.00,,,0.00,WeatherDisplay:10.37,2013-04-28 20:10:00,
2013-04-28 16:20:00,63.1,41.4,30.21,ENE,73,5.0,0.0,45,0.00,,,0.00,WeatherDisplay:10.37,2013-04-28 20:20:00,
2013-04-28 16:30:00,63.5,41.8,30.21,East,92,0.0,0.0,45,0.00,,,0.00,WeatherDisplay:10.37,2013-04-28 20:30:00,
2013-04-28 16:40:00,63.8,42.1,30.21,ESE,111,0.0,0.0,45,0.00,,,0.00,WeatherDisplay:10.37,2013-04-28 20:40:00,
2013-04-28 16:50:00,63.9,42.7,30.20,ESE,118,1.0,0.0,46,0.00,,,0.00,WeatherDisplay:10.37,2013-04-28 20:50:00,
2013-04-28 16:59:00,63.9,42.1,30.20,ESE,121,0.0,0.0,45,0.00,,,0.00,WeatherDisplay:10.37,2013-04-28 20:59:00,
2013-04-28 17:10:00,64.0,42.3,30.20,SE,128,0.0,0.0,45,0.00,,,0.00,WeatherDisplay:10.37,2013-04-28 21:10:00,
2013-04-28 17:20:00,70.5,45.0,30.21,SE,128,0.0,0.0,40,0.00,,,0.00,WeatherDisplay:10.37,2013-04-28 21:20:00,
2013-04-28 17:30:00,74.8,46.0,30.21,SE,128,5.0,0.0,36,0.00,,,0.00,WeatherDisplay:10.37,2013-04-28 21:30:00,
2013-04-28 17:40:00,75.1,43.2,30.21,SE,128,2.0,0.0,32,0.00,,,0.00,WeatherDisplay:10.37,2013-04-28 21:40:00,
2013-04-28 17:50:00,75.2,44.1,30.21,SE,129,1.0,0.0,33,0.00,,,0.00,WeatherDisplay:10.37,2013-04-28 21:50:00,
2013-04-28 17:59:00,74.3,42.5,30.21,SE,125,5.0,0.0,32,0.00,,,0.00,WeatherDisplay:10.37,2013-04-28 21:59:00,
2013-04-28 18:10:00,73.6,42.7,30.21,SE,128,0.0,0.0,33,0.00,,,0.00,WeatherDisplay:10.37,2013-04-28 22:10:00,
2013-04-28 18:20:00,72.4,42.5,30.21,SE,125,1.0,0.0,34,0.00,,,0.00,WeatherDisplay:10.37,2013-04-28 22:20:00,
2013-04-28 18:30:00,68.2,42.3,30.22,SE,127,2.0,0.0,39,0.00,,,0.00,WeatherDisplay:10.37,2013-04-28 22:30:00,
2013-04-28 18:40:00,64.7,39.1,30.22,NE,54,1.0,0.0,39,0.00,,,0.00,WeatherDisplay:10.37,2013-04-28 22:40:00,
2013-04-28 18:50:00,62.2,38.2,30.22,ENE,59,0.0,0.0,41,0.00,,,0.00,WeatherDisplay:10.37,2013-04-28 22:50:00,
2013-04-28 18:59:00,60.3,37.1,30.22,ENE,67,2.0,0.0,42,0.00,,,0.00,WeatherDisplay:10.37,2013-04-28 22:59:00,
2013-04-28 19:10:00,58.8,36.9,30.21,NE,55,1.0,0.0,44,0.00,,,0.00,WeatherDisplay:10.37,2013-04-28 23:10:00,
2013-04-28 19:20:00,57.8,36.6,30.22,NE,48,0.0,0.0,45,0.00,,,0.00,WeatherDisplay:10.37,2013-04-28 23:20:00,
2013-04-28 19:30:00,56.8,36.8,30.22,NE,47,1.0,0.0,47,0.00,,,0.00,WeatherDisplay:10.37,2013-04-28 23:30:00,
2013-04-28 19:40:00,56.3,36.3,30.22,NNE,16,0.0,0.0,47,0.00,,,0.00,WeatherDisplay:10.37,2013-04-28 23:40:00,
2013-04-28 19:50:00,55.4,36.0,30.22,NE,34,0.0,0.0,48,0.00,,,0.00,WeatherDisplay:10.37,2013-04-28 23:50:00,
2013-04-28 19:59:00,54.5,36.3,30.21,NE,48,0.0,0.0,50,0.00,,,0.00,WeatherDisplay:10.37,2013-04-28 23:59:00,
2013-04-28 20:10:00,54.1,36.4,30.21,NE,46,0.0,0.0,51,0.00,,,0.00,WeatherDisplay:10.37,2013-04-29 00:10:00,
2013-04-28 20:20:00,53.5,35.8,30.21,NNE,20,0.0,0.0,51,0.00,,,0.00,WeatherDisplay:10.37,2013-04-29 00:20:00,
2013-04-28 20:30:00,53.1,35.9,30.21,NE,37,2.0,0.0,52,0.00,,,0.00,WeatherDisplay:10.37,2013-04-29 00:30:00,
2013-04-28 20:40:00,52.5,35.4,30.22,NE,49,0.0,0.0,52,0.00,,,0.00,WeatherDisplay:10.37,2013-04-29 00:40:00,
2013-04-28 20:50:00,52.2,35.1,30.22,NE,55,0.0,0.0,52,0.00,,,0.00,WeatherDisplay:10.37,2013-04-29 00:50:00,
2013-04-28 20:59:00,51.8,35.2,30.22,NE,34,0.0,0.0,53,0.00,,,0.00,WeatherDisplay:10.37,2013-04-29 00:59:00,
2013-04-28 21:10:00,51.3,34.7,30.23,East,79,0.0,0.0,53,0.00,,,0.00,WeatherDisplay:10.37,2013-04-29 01:10:00,
2013-04-28 21:20:00,50.9,34.4,30.23,NE,52,0.0,0.0,53,0.00,,,0.00,WeatherDisplay:10.37,2013-04-29 01:20:00,
2013-04-28 21:30:00,50.5,34.5,30.25,East,82,0.0,0.0,54,0.00,,,0.00,WeatherDisplay:10.37,2013-04-29 01:30:00,
2013-04-28 21:40:00,50.4,34.3,30.25,NNE,32,0.0,0.0,54,0.00,,,0.00,WeatherDisplay:10.37,2013-04-29 01:40:00,
2013-04-28 21:50:00,50.0,34.0,30.25,NE,38,0.0,0.0,54,0.00,,,0.00,WeatherDisplay:10.37,2013-04-29 01:50:00,
2013-04-28 21:59:00,49.6,34.1,30.25,NE,44,0.0,0.0,55,0.00,,,0.00,WeatherDisplay:10.37,2013-04-29 01:59:00,
2013-04-28 22:10:00,49.3,33.8,30.25,NE,51,0.0,0.0,55,0.00,,,0.00,WeatherDisplay:10.37,2013-04-29 02:10:00,
2013-04-28 22:20:00,48.9,33.4,30.25,NE,45,0.0,0.0,55,0.00,,,0.00,WeatherDisplay:10.37,2013-04-29 02:20:00,
2013-04-28 22:30:00,48.6,33.2,30.25,ENE,57,0.0,0.0,55,0.00,,,0.00,WeatherDisplay:10.37,2013-04-29 02:30:00,
2013-04-28 22:40:00,48.3,32.8,30.25,NE,38,0.0,0.0,55,0.00,,,0.00,WeatherDisplay:10.37,2013-04-29 02:40:00,
2013-04-28 22:50:00,48.1,32.7,30.25,NE,38,0.0,0.0,55,0.00,,,0.00,WeatherDisplay:10.37,2013-04-29 02:50:00,
2013-04-28 22:59:00,47.8,32.4,30.25,NE,53,0.0,0.0,55,0.00,,,0.00,WeatherDisplay:10.37,2013-04-29 02:59:00,
2013-04-28 23:10:00,47.7,32.7,30.25,East,88,0.0,0.0,56,0.00,,,0.00,WeatherDisplay:10.37,2013-04-29 03:10:00,
2013-04-28 23:20:00,47.3,32.4,30.24,East,79,0.0,0.0,56,0.00,,,0.00,WeatherDisplay:10.37,2013-04-29 03:20:00,
2013-04-28 23:30:00,47.1,32.7,30.25,ENE,60,0.0,0.0,57,0.00,,,0.00,WeatherDisplay:10.37,2013-04-29 03:30:00,
2013-04-28 23:40:00,46.8,32.8,30.25,ENE,60,0.0,0.0,58,0.00,,,0.00,WeatherDisplay:10.37,2013-04-29 03:40:00,
2013-04-28 23:50:00,46.6,32.6,30.25,East,90,0.0,0.0,58,0.00,,,0.00,WeatherDisplay:10.37,2013-04-29 03:50:00,
2013-04-28 23:59:00,46.4,32.4,30.25,ESE,104,0.0,0.0,58,0.00,,,0.00,WeatherDisplay:10.37,2013-04-29 03:59:00,